Other Surface Observations
Issued by NWS

Home | Current Version | Previous Version | Text Only | Print | Product List | Glossary On
Versions: 1 2 3 4 5 6 7 8 9 10 11 12 13 14 15 16 17 18 19 20 21 22 23 24 25 26 27 28 29 30 31 32 33 34 35 36 37 38 39 40 41 42 43 44 45 46 47 48 49 50
320
SXUS52 KTAE 081305
OSOTAE
OSOTAE
North Florida/South Alabama/Southwest Georgia Weather Roundup
National Weather Service Tallahassee Florida
800 AM EST MON FEB 08 2016

Note: "fair" indicates few or no clouds below 12,000 feet with no
significant weather and/or obstructions to visibility.

!FLZ017-115-028-034-025-081400
...North Florida...

CITY           SKY/WX    TMP DP  RH WIND       PRES   REMARKS
TALLAHASSEE    PTCLDY    30  27  88 CALM      30.02F
APALACHICOLA   CLEAR     37  35  92 CALM      30.05F
PERRY          CLEAR     34  32  92 CALM      30.05S
CROSS CITY       N/A     34  32  92 CALM      30.05F
JACKSONVILLE   PTCLDY    36  32  85 W6        30.01F WCI  31
$$

!FLZ112-006-005-002-011-081400
...Florida Panhandle...

CITY           SKY/WX    TMP DP  RH WIND       PRES   REMARKS
MARIANNA       CLEAR     41  36  82 SW7       30.00F WCI  36
BONIFAY        FAIR      41  35  79 SW6       30.02F WCI  37
PANAMA CITY NW FAIR      41  36  82 W5        30.02F WCI  38
TYNDALL AFB    CLEAR     44  39  82 VRB2      30.03F
TYND DRONE APT FAIR      49  41  74 MISG      30.04F
DE FUNIAK SPR  FAIR      40  34  81 SW5       30.02F WCI  36
EGLIN AFB      PTCLDY    43  36  74 W7        30.02F WCI  39
DESTIN         CLEAR     51  36  56 VRB7      30.03F
HURLBURT       CLEAR     47  33  59 W8        30.02F WCI  43
CRESTVIEW      CLEAR     42  35  76 SW8       30.03F WCI  37
PENSACOLA      CLEAR     46  37  71 W9        30.03F WCI  41
$$

!ALZ063-066-081400
...South Alabama...

CITY           SKY/WX    TMP DP  RH WIND       PRES   REMARKS
DOTHAN         CLEAR     39  33  79 SW10      30.01F WCI  32
OZARK CAIRNS   CLEAR     36  33  86 SW6       29.98S WCI  32
FT RUCKER HELI CLEAR     34  30  85 CALM      29.97F
RUCKER HELI 3  FAIR      39  33  80 SW7       29.98F WCI  34
RUCKER HELI 2  FAIR      36  31  82 CALM      29.98
FLORALA APT    CLEAR     39  34  82 SW5       30.01F WCI  36
ANDALUSIA      CLEAR     44  33  65 W5        29.99S WCI  42
TROY           CLEAR     35  30  82 SW3       29.97S
EUFALA         FAIR      40  30  67 SW7       29.94S WCI  35
MOBILE         CLEAR     42  37  82 SW7       30.03F WCI  38
$$

!GAZ120>161-081400
...Southwest and South Central Georgia...

CITY           SKY/WX    TMP DP  RH WIND       PRES   REMARKS
THOMASVILLE    FAIR      41  32  70 W6        30.01S WCI  37
BAINBRIDGE     CLEAR     41  36  81 SW7       30.00F WCI  36
MOODY AFB      CLEAR     40  29  65 SW7       29.98F WCI  36
VALDOSTA       CLEAR     37  33  85 CALM      30.00F
MOULTRIE       CLEAR     37  32  81 SW5       30.00F WCI  34
BLAKELY        CLEAR     41  34  75 CALM      29.99S
ALBANY         CLEAR     33  29  85 SW7       29.99F WCI  27
TIFTON         FAIR      38  32  77 SW6       29.96F WCI  34
FITZGERALD     FAIR      38  30  73 SW3       29.98S
CORDELE        FAIR      39  32  75 SW6       29.96S WCI  35
AMERICUS       FAIR      36  30  80 SW5       29.95S WCI  32
HOMERVILLE     FAIR      36  34  93 CALM      30.00S
$$

!GMZ750-755-770-775-081400
...Coastal and Buoy Obs...

STATION/POSITION TIME  TEMP    WIND        PRES    VSBY  WAVE
                       AIR SEA DIR/SP/G                  HT/PER
                 (UTC) (F)     (DEG/KT/KT) (MB)    (MI)  (FT/S)
KEATON BEACH     1200   50     300/  6/  8 1017.9R
CEDAR KEY        1200   49     330/  2/  3 1018.8R
C TOWER          NOT AVBL
APALACHICOLA BUO 1150   61 68  300/ 14/ 16 1018.2          4/ 5
PANAMA CITY BUOY 1150   60 69  300/ 14/ 17 1018.7          4/ 5
MOBILE BUOY      NOT AVBL
ORANGE BCH AL BU 1150   55 60  270/ 19/ 23 1017.2          4/ 6
$$




USA.gov is the U.S. government's official web portal to all federal, state and local government web resources and services.